Weather History for KCAR - August, 2013

Change the Weather History Date:

Monday, August 19, 2013

  Actual Average Record
Temperature  
Mean Temperature 68 °F 63 °F  
Max Temperature 78 °F 74 °F 92 °F (1960)
Min Temperature 57 °F 53 °F 37 °F (2005)
Degree Days  
Heating Degree Days 0 3  
Month to date heating degree days 52 44  
Since 1 June heating degree days 258 267  
Since 1 July heating degree days 80 102  
Cooling Degree Days 3 2  
Month to date cooling degree days 7 39  
Year to date cooling degree days 157 155  
Since 1 June cooling degree days 149 150  
Growing Degree Days 18 (Base 50)    
Moisture  
Dew Point 57 °F    
Average Humidity 72    
Maximum Humidity 90    
Minimum Humidity 54    
Precipitation  
Precipitation 0.00 in 0.12 in 2.14 in (1991)
Month to date precipitation 4.52 2.38  
Year to date precipitation 31.87 23.36  
Snow  
Snow 0.00 in 0.00 in 0.00 in (2002)
Month to date snowfall 0.0 0.0  
Since 1 June snowfall 0.0 0.0  
Since 1 July snowfall 0.0 0.0  
Snow Depth 0.00 in    
Sea Level Pressure  
Sea Level Pressure 29.84 in    
Wind  
Wind Speed 7 mph (West)    
Max Wind Speed 17 mph    
Max Gust Speed 24 mph    
Visibility 10 miles    
Events      
T = Trace of Precipitation, MM = Missing Value Source: NWS Daily Summary

Daily Weather History Graph

Daily Weather History Graph

Search for Another Location

Airport or City:

Trip Planner

Search our weather history database for the weather conditions in past years. The results will help you decide how hot, cold, wet, or windy it might be!

Date:

Astronomy

Aug. 19, 2013 Rise Set
Actual Time 5:35 AM EDT 7:35 PM EDT
Civil Twilight 5:02 AM EDT 8:07 PM EDT
Nautical Twilight 4:21 AM EDT 8:48 PM EDT
Astronomical Twilight 3:36 AM EDT 9:32 PM EDT
Moon 6:23 PM EDT (8/19) 3:47 AM EDT (8/19)
Length of Visible Light 15h 05m
Length of Day
14h 00m
Waxing Gibbous, 97% of the Moon is Illuminated
Aug 19
Waxing Gibbous
Aug 20
Full
Aug 28
Last Quarter
Sep 5
New
Sep 12
First Quarter

Hourly Weather History & Observations

Time (EDT) Temp. Dew Point Humidity Pressure Visibility Wind Dir Wind Speed Gust Speed Precip Events Conditions
12:54 AM 60.1 °F 54.0 °F 80% 29.92 in 10.0 mi WSW 5.8 mph - N/A   Clear
1:54 AM 60.1 °F 54.0 °F 80% 29.91 in 10.0 mi WSW 3.5 mph - N/A   Clear
2:54 AM 60.1 °F 54.0 °F 80% 29.89 in 10.0 mi SSW 6.9 mph - N/A   Clear
3:54 AM 59.0 °F 54.0 °F 83% 29.87 in 10.0 mi SW 4.6 mph - N/A   Clear
4:54 AM 59.0 °F 54.0 °F 83% 29.84 in 10.0 mi SW 5.8 mph - N/A   Clear
5:54 AM 59.0 °F 54.0 °F 83% 29.82 in 10.0 mi SSW 5.8 mph - N/A   Clear
6:54 AM 61.0 °F 55.0 °F 81% 29.83 in 10.0 mi SSW 4.6 mph - N/A   Clear
7:54 AM 64.9 °F 55.9 °F 73% 29.81 in 10.0 mi WSW 8.1 mph - N/A   Clear
8:54 AM 66.9 °F 57.0 °F 70% 29.81 in 10.0 mi WSW 10.4 mph - N/A   Scattered Clouds
9:54 AM 71.1 °F 57.9 °F 63% 29.81 in 10.0 mi Variable 5.8 mph 16.1 mph N/A   Clear
10:54 AM 73.9 °F 59.0 °F 59% 29.81 in 10.0 mi WNW 10.4 mph 17.3 mph N/A   Partly Cloudy
11:54 AM 75.9 °F 60.1 °F 58% 29.81 in 10.0 mi NNW 16.1 mph 23.0 mph N/A   Scattered Clouds
12:54 PM 77.0 °F 62.1 °F 60% 29.81 in 10.0 mi WNW 8.1 mph - N/A   Scattered Clouds
1:54 PM 75.9 °F 60.1 °F 58% 29.81 in 10.0 mi NW 9.2 mph 20.7 mph N/A   Scattered Clouds
2:54 PM 78.1 °F 60.1 °F 54% 29.81 in 10.0 mi WNW 10.4 mph 17.3 mph N/A   Partly Cloudy
3:54 PM 77.0 °F 59.0 °F 54% 29.81 in 10.0 mi WNW 10.4 mph 17.3 mph N/A   Mostly Cloudy
4:54 PM 77.0 °F 60.1 °F 56% 29.82 in 10.0 mi WNW 6.9 mph - N/A   Clear
5:54 PM 75.0 °F 57.0 °F 53% 29.83 in 10.0 mi NW 10.4 mph - N/A   Clear
6:54 PM 73.0 °F 57.0 °F 57% 29.84 in 10.0 mi NW 4.6 mph - N/A   Clear
7:54 PM 69.1 °F 57.0 °F 65% 29.85 in 10.0 mi NW 4.6 mph - N/A   Clear
8:54 PM 66.9 °F 57.9 °F 73% 29.87 in 10.0 mi WNW 4.6 mph - N/A   Clear
9:54 PM 64.0 °F 57.9 °F 80% 29.88 in 10.0 mi Calm Calm - N/A   Clear
10:54 PM 64.0 °F 57.0 °F 78% 29.88 in 10.0 mi NNW 4.6 mph - N/A   Clear
11:54 PM 61.0 °F 57.0 °F 87% 29.89 in 10.0 mi West 5.8 mph - N/A   Clear